Location: CNYAC Observatory
(43.2150°N, 74.9500°W)
Time: 20:03:57
(UTC-04:00)

Cosmos 1975 Rocket - Visible Passes

Search period start: 28 May 2017 00:00
Search period end: 07 June 2017 00:00
Orbit: 604 x 634 km, 82.5° (Epoch: 27 May)

Date Brightness Start Highest point End Pass type
(mag) Time Alt. Az. Time Alt. Az. Time Alt. Az.
28 May 6.1 20:57:55 10° WSW 21:01:02 18° WNW 21:04:10 10° NNW visible
29 May 6.9 21:17:55 10° WNW 21:18:43 10° WNW 21:19:31 10° NW visible
06 Jun 6.2 04:30:58 10° NE 04:33:14 14° ENE 04:35:28 10° E visible
